Marion, IN

6:33 PM EDT on March 27, 2017 (GMT -0400)
Marion Municipal

Weather History for KMZZ - February, 2013

Change the Weather History Date:

Monday, February 18, 2013

  Actual Average (KMIE) Record (KMIE)
Temperature  
Mean Temperature 38 °F -  
Max Temperature 62 °F 37 °F 67 °F (2017)
Min Temperature 23 °F 23 °F -10 °F (1993)
Degree Days  
Heating Degree Days 27    
Moisture  
Dew Point 26 °F    
Average Humidity 61    
Maximum Humidity 84    
Minimum Humidity 52    
Precipitation  
Precipitation 0.01 in - - ()
Sea Level Pressure  
Sea Level Pressure 29.88 in    
Wind  
Wind Speed 15 mph (South)    
Max Wind Speed 29 mph    
Max Gust Speed 44 mph    
Visibility 8 miles    
Events Rain , Snow    
Averages and records for this station are not official NWS values.
T = Trace of Precipitation, MM = Missing Value Source: NWS Daily Summary

Daily Weather History Graph

Daily Weather History Graph

Search for Another Location

Airport or City:

Trip Planner

Search our weather history database for the weather conditions in past years. The results will help you decide how hot, cold, wet, or windy it might be!

Date:

Astronomy

Feb. 18, 2013 Rise Set
Actual Time 7:31 AM EST 6:21 PM EST
Civil Twilight 7:04 AM EST 6:49 PM EST
Nautical Twilight 6:32 AM EST 7:21 PM EST
Astronomical Twilight 6:00 AM EST 7:53 PM EST
Moon 12:06 PM EST (2/18) 2:11 AM EST (2/18)
Length of Visible Light 11h 45m
Length of Day
10h 49m
First Quarter, 58% of the Moon is Illuminated
Feb 18
First Quarter
Feb 25
Full
Mar 4
Last Quarter
Mar 11
New
Mar 19
First Quarter

Hourly Weather History & Observations

Time (EST) Temp. Windchill Dew Point Humidity Pressure Visibility Wind Dir Wind Speed Gust Speed Precip Events Conditions
12:15 AM 23.9 °F 14.2 °F 12.2 °F 61% 30.14 in 7.0 mi SSE 9.2 mph - N/A Snow Light Snow
12:35 AM 23.9 °F 13.5 °F 11.8 °F 60% 30.14 in 5.0 mi SSE 10.4 mph - N/A Snow Light Snow
12:55 AM 23.7 °F 14.0 °F 11.8 °F 61% 30.14 in 10.0 mi SSE 9.2 mph - N/A   Clear
1:15 AM 23.9 °F 13.5 °F 11.7 °F 60% 30.14 in 10.0 mi SSE 10.4 mph - N/A   Clear
1:35 AM 23.7 °F 14.0 °F 11.8 °F 61% 30.13 in 10.0 mi SSE 9.2 mph - N/A   Clear
1:55 AM 23.9 °F 13.5 °F 11.7 °F 60% 30.13 in 7.0 mi SSE 10.4 mph - N/A   Mostly Cloudy
2:15 AM 24.4 °F 13.5 °F 11.7 °F 58% 30.11 in 10.0 mi SE 11.5 mph - N/A   Overcast
2:35 AM 24.6 °F 14.4 °F 11.7 °F 58% 30.11 in 7.0 mi SSE 10.4 mph - N/A   Scattered Clouds
2:55 AM 25.0 °F 14.2 °F 11.3 °F 56% 30.11 in 10.0 mi SSE 11.5 mph - N/A   Clear
3:15 AM 25.2 °F 13.9 °F 11.5 °F 56% 30.10 in 10.0 mi SSE 12.7 mph - N/A   Clear
3:35 AM 25.3 °F 14.1 °F 11.3 °F 55% 30.09 in 7.0 mi SSE 12.7 mph 18.4 mph N/A   Clear
3:55 AM 25.3 °F 14.1 °F 11.7 °F 56% 30.08 in 7.0 mi SSE 12.7 mph - N/A   Clear
4:15 AM 25.7 °F 14.6 °F 12.0 °F 56% 30.06 in 10.0 mi SSE 12.7 mph - N/A   Clear
4:35 AM 25.7 °F 14.6 °F 12.2 °F 57% 30.05 in 10.0 mi SSE 12.7 mph 17.3 mph N/A   Clear
4:55 AM 26.1 °F 15.6 °F 12.4 °F 56% 30.05 in 4.0 mi SE 11.5 mph - N/A Snow Light Snow
5:15 AM 26.2 °F 14.2 °F 12.7 °F 57% 30.04 in 7.0 mi SSE 15.0 mph - N/A Snow Light Snow
5:35 AM 26.6 °F 15.2 °F 13.1 °F 57% 30.03 in 10.0 mi SSE 13.8 mph 19.6 mph N/A   Clear
5:55 AM 26.6 °F 15.2 °F 13.5 °F 58% 30.02 in 10.0 mi SSE 13.8 mph - N/A   Clear
6:15 AM 27.0 °F 14.7 °F 13.8 °F 58% 30.01 in 7.0 mi SSE 16.1 mph - N/A   Clear
6:35 AM 27.3 °F 16.1 °F 14.4 °F 58% 30.00 in 10.0 mi SSE 13.8 mph - N/A   Clear
6:55 AM 27.5 °F 15.9 °F 14.7 °F 59% 29.99 in 10.0 mi SSE 15.0 mph - N/A   Clear
7:15 AM 27.5 °F 15.9 °F 14.9 °F 59% 29.98 in 10.0 mi SSE 15.0 mph 19.6 mph N/A   Clear
7:35 AM 27.7 °F 16.6 °F 15.4 °F 60% 29.97 in 10.0 mi SSE 13.8 mph - N/A   Clear
7:55 AM 28.8 °F 18.4 °F 16.2 °F 59% 29.96 in 10.0 mi SSE 12.7 mph - N/A   Clear
8:15 AM 29.7 °F 19.6 °F 16.9 °F 59% 29.96 in 10.0 mi South 12.7 mph - N/A   Clear
8:35 AM 31.3 °F 20.7 °F 18.0 °F 58% 29.96 in 10.0 mi South 15.0 mph - N/A   Clear
8:55 AM 33.1 °F 22.2 °F 18.9 °F 56% 29.96 in 7.0 mi South 17.3 mph - N/A   Clear
9:15 AM 34.2 °F 23.0 °F 19.6 °F 55% 29.95 in 10.0 mi South 19.6 mph 26.5 mph N/A   Clear
9:35 AM 35.2 °F 24.4 °F 20.5 °F 55% 29.94 in 10.0 mi South 19.6 mph 25.3 mph N/A   Clear
9:55 AM 36.1 °F 26.5 °F 21.6 °F 56% 29.94 in 10.0 mi South 16.1 mph 24.2 mph N/A   Clear
10:15 AM 37.6 °F 27.7 °F 22.8 °F 55% 29.93 in 10.0 mi South 18.4 mph 23.0 mph N/A   Clear
10:35 AM 39.2 °F 29.3 °F 24.3 °F 55% 29.93 in 10.0 mi SSW 20.7 mph 28.8 mph N/A   Clear
10:55 AM 39.9 °F 30.5 °F 25.7 °F 57% 29.92 in 10.0 mi SSW 19.6 mph 27.6 mph N/A   Clear
11:15 AM 41.0 °F 31.4 °F 26.8 °F 57% 29.91 in 5.0 mi South 21.9 mph 28.8 mph N/A   Haze
11:35 AM 41.7 °F 32.9 °F 27.5 °F 57% 29.90 in 4.0 mi South 19.6 mph 27.6 mph N/A   Haze
11:55 AM 42.6 °F 33.8 °F 28.2 °F 57% 29.89 in 5.0 mi SSW 20.7 mph 29.9 mph N/A   Haze
12:15 PM 43.5 °F 34.7 °F 29.3 °F 57% 29.89 in 2.5 mi South 21.9 mph 28.8 mph N/A   Haze
12:35 PM 45.0 °F 37.4 °F 30.6 °F 57% 29.88 in 7.0 mi SSW 18.4 mph 26.5 mph N/A   Clear
12:55 PM 46.4 °F 38.1 °F 31.5 °F 56% 29.87 in 7.0 mi South 24.2 mph 31.1 mph N/A   Clear
1:15 PM 47.1 °F - 32.0 °F 56% 29.86 in 2.5 mi South 17.3 mph 28.8 mph N/A   Haze
1:35 PM 47.8 °F - 32.4 °F 55% 29.85 in 4.0 mi South 21.9 mph 31.1 mph N/A   Haze
1:55 PM 48.4 °F - 33.4 °F 56% 29.84 in 5.0 mi South 18.4 mph 25.3 mph N/A   Haze
2:15 PM 49.3 °F - 34.5 °F 57% 29.83 in 10.0 mi SSW 20.7 mph 26.5 mph N/A   Clear
2:35 PM 50.4 °F - 35.1 °F 56% 29.81 in 5.0 mi South 19.6 mph 25.3 mph N/A   Haze
2:55 PM 50.9 °F - 35.4 °F 55% 29.79 in 7.0 mi South 20.7 mph 24.2 mph N/A   Clear
3:15 PM 52.3 °F - 36.5 °F 55% 29.79 in 10.0 mi South 20.7 mph 26.5 mph N/A   Scattered Clouds
3:35 PM 53.2 °F - 37.2 °F 55% 29.78 in 5.0 mi South 13.8 mph 25.3 mph N/A   Haze
3:55 PM 52.5 °F - 37.6 °F 57% 29.76 in 5.0 mi South 13.8 mph 18.4 mph N/A   Haze
4:15 PM 52.0 °F - 37.6 °F 58% 29.75 in 7.0 mi South 20.7 mph 24.2 mph N/A   Overcast
4:35 PM 51.8 °F - 37.6 °F 58% 29.74 in 5.0 mi South 16.1 mph 20.7 mph N/A   Haze
4:55 PM 51.8 °F - 37.9 °F 59% 29.74 in 4.0 mi South 17.3 mph - N/A   Haze
5:15 PM 51.6 °F - 37.6 °F 59% 29.73 in 7.0 mi South 15.0 mph 21.9 mph N/A   Overcast
5:35 PM 51.3 °F - 36.1 °F 56% 29.73 in 10.0 mi South 13.8 mph 20.7 mph N/A   Overcast
5:55 PM 51.1 °F - 34.3 °F 53% 29.73 in 10.0 mi SSW 16.1 mph 20.7 mph N/A   Overcast
6:15 PM 50.4 °F - 33.3 °F 52% 29.73 in 10.0 mi South 10.4 mph - N/A Rain Light Rain
6:35 PM 50.0 °F - 32.9 °F 52% 29.73 in 10.0 mi SSW 18.4 mph 24.2 mph N/A Rain Light Rain
6:55 PM 49.3 °F - 33.4 °F 54% 29.74 in 7.0 mi SSW 21.9 mph 27.6 mph N/A Rain Light Rain
7:15 PM 47.7 °F - 35.8 °F 63% 29.74 in 10.0 mi SSW 23.0 mph 31.1 mph N/A Rain Light Rain
7:35 PM 46.8 °F - 36.7 °F 68% 29.72 in 7.0 mi SSW 23.0 mph 39.1 mph N/A Rain Light Rain
7:55 PM 46.2 °F 40.1 °F 36.7 °F 69% 29.70 in 10.0 mi South 13.8 mph - N/A   Mostly Cloudy
8:15 PM 45.1 °F 38.8 °F 36.5 °F 72% 29.69 in 10.0 mi South 13.8 mph - N/A   Overcast
8:35 PM 44.8 °F 38.7 °F 36.1 °F 72% 29.67 in 10.0 mi South 12.7 mph - N/A   Overcast
8:55 PM 45.1 °F 38.1 °F 36.0 °F 70% 29.65 in 10.0 mi South 16.1 mph 20.7 mph N/A   Overcast
9:15 PM 45.7 °F 37.8 °F 36.1 °F 69% 29.65 in 10.0 mi South 20.7 mph 27.6 mph N/A   Overcast
9:35 PM 46.4 °F 39.0 °F 36.1 °F 67% 29.65 in 10.0 mi SSW 19.6 mph 28.8 mph N/A Rain Light Rain
9:55 PM 45.5 °F 36.5 °F 37.2 °F 73% 29.64 in 7.0 mi South 26.5 mph 34.5 mph 0.01 in Rain Light Rain
10:15 PM 45.1 °F 36.4 °F 38.5 °F 77% 29.64 in 10.0 mi South 24.2 mph 36.8 mph N/A   Overcast
10:35 PM 44.2 °F 34.4 °F 38.8 °F 81% 29.63 in 10.0 mi South 28.8 mph 35.7 mph N/A Rain Light Rain
10:55 PM 43.9 °F 34.5 °F 38.8 °F 82% 29.62 in 7.0 mi South 25.3 mph 35.7 mph N/A Rain Light Rain
11:15 PM 43.7 °F 34.1 °F 39.2 °F 84% 29.60 in 10.0 mi South 26.5 mph 31.1 mph N/A Rain Light Rain
11:35 PM 43.9 °F 34.3 °F 39.2 °F 84% 29.59 in 7.0 mi South 26.5 mph 43.7 mph N/A Rain Light Rain
11:55 PM 44.1 °F 34.6 °F 38.8 °F 82% 29.58 in 10.0 mi South 26.5 mph 40.3 mph N/A Rain Light Rain